Time,TemperatureF,DewpointF,PressureIn,WindDirection,WindDirectionDegrees,WindSpeedMPH,WindSpeedGustMPH,Humidity,HourlyPrecipIn,Conditions,Clouds,dailyrainin,SoftwareType,DateUTC
2013-01-03 00:06:00,24.9,20.0,30.07,West,277,4.0,8.0,82,0.00,,,0.00,weatherlink.com 1.10,2013-01-03 06:06:00,
2013-01-03 00:21:00,24.7,20.0,30.07,West,280,7.0,10.0,82,0.00,,,0.00,weatherlink.com 1.10,2013-01-03 06:21:00,
2013-01-03 00:36:00,24.5,20.0,30.07,WNW,300,3.0,8.0,82,0.00,,,0.00,weatherlink.com 1.10,2013-01-03 06:36:00,
2013-01-03 00:52:00,24.3,20.0,30.08,WNW,285,5.0,8.0,82,0.00,,,0.00,weatherlink.com 1.10,2013-01-03 06:52:00,
2013-01-03 01:07:00,24.2,20.0,30.07,SW,227,1.0,10.0,83,0.00,,,0.00,weatherlink.com 1.10,2013-01-03 07:07:00,
2013-01-03 01:22:00,24.0,20.0,30.07,West,266,5.0,7.0,83,0.00,,,0.00,weatherlink.com 1.10,2013-01-03 07:22:00,
2013-01-03 01:37:00,23.9,20.0,30.07,WNW,289,3.0,10.0,83,0.00,,,0.00,weatherlink.com 1.10,2013-01-03 07:37:00,
2013-01-03 01:52:00,23.7,19.0,30.09,WNW,284,3.0,11.0,83,0.00,,,0.00,weatherlink.com 1.10,2013-01-03 07:52:00,
2013-01-03 02:07:00,23.6,20.0,30.09,WNW,293,3.0,8.0,84,0.00,,,0.00,weatherlink.com 1.10,2013-01-03 08:07:00,
2013-01-03 02:22:00,23.5,19.0,30.09,NW,308,3.0,8.0,84,0.00,,,0.00,weatherlink.com 1.10,2013-01-03 08:22:00,
2013-01-03 02:37:00,23.3,19.0,30.08,WNW,289,2.0,7.0,84,0.00,,,0.00,weatherlink.com 1.10,2013-01-03 08:37:00,
2013-01-03 02:52:00,23.2,19.0,30.09,NW,311,4.0,7.0,85,0.00,,,0.00,weatherlink.com 1.10,2013-01-03 08:52:00,
2013-01-03 03:07:00,23.2,19.0,30.09,West,278,4.0,7.0,85,0.00,,,0.00,weatherlink.com 1.10,2013-01-03 09:07:00,
2013-01-03 03:22:00,23.2,19.0,30.08,SW,228,2.0,6.0,85,0.00,,,0.00,weatherlink.com 1.10,2013-01-03 09:22:00,
2013-01-03 03:37:00,23.1,20.0,30.07,West,271,3.0,5.0,86,0.00,,,0.00,weatherlink.com 1.10,2013-01-03 09:37:00,
2013-01-03 03:52:00,23.2,20.0,30.07,WSW,243,2.0,6.0,86,0.00,,,0.00,weatherlink.com 1.10,2013-01-03 09:52:00,
2013-01-03 04:07:00,23.4,20.0,30.07,WSW,258,4.0,6.0,87,0.00,,,0.00,weatherlink.com 1.10,2013-01-03 10:07:00,
2013-01-03 04:22:00,23.4,20.0,30.08,WNW,294,3.0,7.0,87,0.00,,,0.00,weatherlink.com 1.10,2013-01-03 10:22:00,
2013-01-03 04:37:00,23.5,21.0,30.08,West,266,4.0,6.0,88,0.00,,,0.00,weatherlink.com 1.10,2013-01-03 10:37:00,
2013-01-03 04:52:00,23.6,21.0,30.08,WNW,287,2.0,8.0,88,0.00,,,0.00,weatherlink.com 1.10,2013-01-03 10:52:00,
2013-01-03 05:07:00,23.7,21.0,30.08,West,274,3.0,8.0,88,0.00,,,0.00,weatherlink.com 1.10,2013-01-03 11:07:00,
2013-01-03 05:22:00,23.9,21.0,30.08,SW,231,5.0,8.0,88,0.00,,,0.00,weatherlink.com 1.10,2013-01-03 11:22:00,
2013-01-03 05:37:00,23.9,21.0,30.09,West,279,2.0,8.0,88,0.00,,,0.00,weatherlink.com 1.10,2013-01-03 11:37:00,
2013-01-03 05:52:00,24.0,21.0,30.09,SW,235,4.0,5.0,88,0.00,,,0.00,weatherlink.com 1.10,2013-01-03 11:52:00,
2013-01-03 06:07:00,24.1,21.0,30.10,WNW,291,3.0,5.0,89,0.00,,,0.00,weatherlink.com 1.10,2013-01-03 12:07:00,
2013-01-03 06:22:00,24.2,22.0,30.11,WNW,283,3.0,7.0,89,0.00,,,0.00,weatherlink.com 1.10,2013-01-03 12:22:00,
2013-01-03 06:37:00,24.3,21.0,30.11,West,274,2.0,7.0,88,0.00,,,0.00,weatherlink.com 1.10,2013-01-03 12:37:00,
2013-01-03 06:52:00,24.3,21.0,30.11,NW,304,3.0,6.0,88,0.00,,,0.00,weatherlink.com 1.10,2013-01-03 12:52:00,
2013-01-03 07:07:00,24.3,21.0,30.12,WNW,293,3.0,6.0,88,0.00,,,0.00,weatherlink.com 1.10,2013-01-03 13:07:00,
2013-01-03 07:22:00,24.3,21.0,30.13,West,273,4.0,10.0,88,0.00,,,0.00,weatherlink.com 1.10,2013-01-03 13:22:00,
2013-01-03 07:38:00,24.3,21.0,30.14,WNW,288,4.0,7.0,87,0.00,,,0.00,weatherlink.com 1.10,2013-01-03 13:38:00,
2013-01-03 07:52:00,24.4,21.0,30.14,WNW,294,4.0,6.0,87,0.00,,,0.00,weatherlink.com 1.10,2013-01-03 13:52:00,
2013-01-03 08:07:00,24.4,21.0,30.14,NW,319,2.0,3.0,87,0.00,,,0.00,weatherlink.com 1.10,2013-01-03 14:07:00,
2013-01-03 08:22:00,24.5,21.0,30.15,NNW,333,3.0,7.0,86,0.00,,,0.00,weatherlink.com 1.10,2013-01-03 14:22:00,
2013-01-03 08:37:00,24.5,21.0,30.16,WNW,299,5.0,11.0,85,0.00,,,0.00,weatherlink.com 1.10,2013-01-03 14:37:00,
2013-01-03 08:52:00,24.4,21.0,30.16,NW,310,5.0,7.0,85,0.00,,,0.00,weatherlink.com 1.10,2013-01-03 14:52:00,
2013-01-03 09:07:00,24.5,21.0,30.16,NW,311,3.0,9.0,85,0.00,,,0.00,weatherlink.com 1.10,2013-01-03 15:07:00,
2013-01-03 09:22:00,24.6,21.0,30.16,West,270,3.0,7.0,85,0.00,,,0.00,weatherlink.com 1.10,2013-01-03 15:22:00,
2013-01-03 09:38:00,24.7,21.0,30.17,NW,304,4.0,8.0,85,0.00,,,0.00,weatherlink.com 1.10,2013-01-03 15:38:00,
2013-01-03 09:53:00,24.8,21.0,30.17,West,267,5.0,10.0,84,0.00,,,0.00,weatherlink.com 1.10,2013-01-03 15:53:00,
2013-01-03 10:08:00,24.9,21.0,30.18,WNW,293,7.0,10.0,84,0.00,,,0.00,weatherlink.com 1.10,2013-01-03 16:08:00,
2013-01-03 10:23:00,25.2,21.0,30.18,NW,314,7.0,10.0,83,0.00,,,0.00,weatherlink.com 1.10,2013-01-03 16:23:00,
2013-01-03 10:38:00,25.3,21.0,30.18,WNW,302,6.0,9.0,83,0.00,,,0.00,weatherlink.com 1.10,2013-01-03 16:38:00,
2013-01-03 10:53:00,25.3,21.0,30.18,West,274,4.0,9.0,84,0.00,,,0.00,weatherlink.com 1.10,2013-01-03 16:53:00,
2013-01-03 11:08:00,25.4,21.0,30.19,NW,318,2.0,10.0,83,0.00,,,0.00,weatherlink.com 1.10,2013-01-03 17:08:00,
2013-01-03 11:23:00,25.3,21.0,30.18,WNW,297,6.0,10.0,82,0.00,,,0.00,weatherlink.com 1.10,2013-01-03 17:23:00,
2013-01-03 11:38:00,25.7,21.0,30.18,West,260,5.0,9.0,82,0.00,,,0.00,weatherlink.com 1.10,2013-01-03 17:38:00,
2013-01-03 11:53:00,25.5,21.0,30.18,WSW,250,7.0,11.0,82,0.00,,,0.00,weatherlink.com 1.10,2013-01-03 17:53:00,
2013-01-03 12:08:00,25.6,21.0,30.18,WNW,302,4.0,11.0,82,0.00,,,0.00,weatherlink.com 1.10,2013-01-03 18:08:00,
2013-01-03 12:23:00,25.7,21.0,30.18,NW,311,5.0,10.0,82,0.00,,,0.00,weatherlink.com 1.10,2013-01-03 18:23:00,
2013-01-03 12:38:00,26.0,21.0,30.17,WNW,302,6.0,8.0,81,0.00,,,0.00,weatherlink.com 1.10,2013-01-03 18:38:00,
2013-01-03 12:53:00,26.1,21.0,30.16,West,277,5.0,11.0,81,0.00,,,0.00,weatherlink.com 1.10,2013-01-03 18:53:00,
2013-01-03 13:08:00,26.3,21.0,30.17,NW,325,7.0,9.0,80,0.00,,,0.00,weatherlink.com 1.10,2013-01-03 19:08:00,
2013-01-03 13:53:00,26.4,21.0,30.17,WNW,294,5.0,9.0,79,0.00,,,0.00,weatherlink.com 1.10,2013-01-03 19:53:00,
2013-01-03 14:08:00,26.6,21.0,30.18,NW,318,4.0,10.0,80,0.00,,,0.00,weatherlink.com 1.10,2013-01-03 20:08:00,
2013-01-03 14:23:00,26.6,21.0,30.18,WNW,291,4.0,9.0,80,0.00,,,0.00,weatherlink.com 1.10,2013-01-03 20:23:00,
2013-01-03 14:38:00,26.7,21.0,30.18,WNW,283,5.0,8.0,80,0.00,,,0.00,weatherlink.com 1.10,2013-01-03 20:38:00,
2013-01-03 14:53:00,26.7,21.0,30.19,West,270,4.0,10.0,80,0.00,,,0.00,weatherlink.com 1.10,2013-01-03 20:53:00,
2013-01-03 15:08:00,26.8,21.0,30.19,West,269,4.0,8.0,79,0.00,,,0.00,weatherlink.com 1.10,2013-01-03 21:08:00,
2013-01-03 15:23:00,26.5,22.0,30.20,WSW,238,2.0,8.0,82,0.00,,,0.00,weatherlink.com 1.10,2013-01-03 21:23:00,
2013-01-03 15:38:00,25.7,21.0,30.20,West,273,4.0,10.0,83,0.00,,,0.00,weatherlink.com 1.10,2013-01-03 21:38:00,
2013-01-03 15:53:00,25.4,21.0,30.21,West,277,3.0,9.0,83,0.00,,,0.00,weatherlink.com 1.10,2013-01-03 21:53:00,
2013-01-03 16:08:00,25.1,21.0,30.22,WNW,300,5.0,9.0,83,0.00,,,0.00,weatherlink.com 1.10,2013-01-03 22:08:00,
2013-01-03 16:23:00,24.8,20.0,30.22,NW,309,4.0,7.0,83,0.00,,,0.00,weatherlink.com 1.10,2013-01-03 22:23:00,
2013-01-03 16:38:00,24.7,20.0,30.23,WNW,284,4.0,8.0,83,0.00,,,0.00,weatherlink.com 1.10,2013-01-03 22:38:00,
2013-01-03 16:53:00,24.3,20.0,30.23,WSW,242,2.0,10.0,83,0.00,,,0.00,weatherlink.com 1.10,2013-01-03 22:53:00,
2013-01-03 17:08:00,24.0,20.0,30.23,WSW,255,3.0,9.0,83,0.00,,,0.00,weatherlink.com 1.10,2013-01-03 23:08:00,
2013-01-03 17:23:00,23.6,19.0,30.23,WSW,238,6.0,8.0,82,0.00,,,0.00,weatherlink.com 1.10,2013-01-03 23:23:00,
2013-01-03 17:38:00,22.9,18.0,30.24,WSW,256,6.0,8.0,82,0.00,,,0.00,weatherlink.com 1.10,2013-01-03 23:38:00,
2013-01-03 17:53:00,22.1,18.0,30.24,WSW,256,3.0,7.0,83,0.00,,,0.00,weatherlink.com 1.10,2013-01-03 23:53:00,
2013-01-03 18:08:00,21.3,17.0,30.24,West,266,0.0,7.0,83,0.00,,,0.00,weatherlink.com 1.10,2013-01-04 00:08:00,
2013-01-03 18:23:00,20.5,16.0,30.24,SSE,163,2.0,8.0,84,0.00,,,0.00,weatherlink.com 1.10,2013-01-04 00:23:00,
2013-01-03 18:39:00,20.0,16.0,30.24,SW,229,1.0,8.0,84,0.00,,,0.00,weatherlink.com 1.10,2013-01-04 00:39:00,
2013-01-03 18:54:00,19.6,16.0,30.24,SW,231,4.0,9.0,84,0.00,,,0.00,weatherlink.com 1.10,2013-01-04 00:54:00,
2013-01-03 19:09:00,19.1,15.0,30.24,West,274,3.0,8.0,84,0.00,,,0.00,weatherlink.com 1.10,2013-01-04 01:09:00,
2013-01-03 19:24:00,18.9,15.0,30.25,SSE,153,5.0,9.0,84,0.00,,,0.00,weatherlink.com 1.10,2013-01-04 01:24:00,
2013-01-03 19:39:00,18.6,15.0,30.25,WNW,285,3.0,9.0,84,0.00,,,0.00,weatherlink.com 1.10,2013-01-04 01:39:00,
2013-01-03 19:54:00,18.3,14.0,30.25,West,266,5.0,8.0,84,0.00,,,0.00,weatherlink.com 1.10,2013-01-04 01:54:00,
2013-01-03 20:09:00,18.0,14.0,30.24,West,260,7.0,9.0,84,0.00,,,0.00,weatherlink.com 1.10,2013-01-04 02:09:00,
2013-01-03 20:24:00,17.8,14.0,30.23,WSW,245,2.0,10.0,84,0.00,,,0.00,weatherlink.com 1.10,2013-01-04 02:24:00,
2013-01-03 20:39:00,17.5,14.0,30.23,SW,214,2.0,6.0,85,0.00,,,0.00,weatherlink.com 1.10,2013-01-04 02:39:00,
2013-01-03 20:54:00,17.4,14.0,30.23,WSW,238,4.0,11.0,85,0.00,,,0.00,weatherlink.com 1.10,2013-01-04 02:54:00,
2013-01-03 21:09:00,17.1,13.0,30.23,SW,225,6.0,7.0,85,0.00,,,0.00,weatherlink.com 1.10,2013-01-04 03:09:00,
2013-01-03 21:24:00,16.9,13.0,30.23,West,270,2.0,10.0,85,0.00,,,0.00,weatherlink.com 1.10,2013-01-04 03:24:00,
2013-01-03 21:39:00,16.5,13.0,30.23,WSW,255,8.0,10.0,85,0.00,,,0.00,weatherlink.com 1.10,2013-01-04 03:39:00,
2013-01-03 21:54:00,16.1,12.0,30.23,WSW,253,4.0,10.0,85,0.00,,,0.00,weatherlink.com 1.10,2013-01-04 03:54:00,
2013-01-03 22:09:00,15.7,12.0,30.23,WNW,285,6.0,13.0,85,0.00,,,0.00,weatherlink.com 1.10,2013-01-04 04:09:00,
2013-01-03 22:24:00,15.3,12.0,30.23,WNW,287,9.0,11.0,85,0.00,,,0.00,weatherlink.com 1.10,2013-01-04 04:24:00,
2013-01-03 22:39:00,14.9,11.0,30.24,SSW,210,5.0,12.0,85,0.00,,,0.00,weatherlink.com 1.10,2013-01-04 04:39:00,
2013-01-03 22:54:00,14.6,11.0,30.24,WSW,257,4.0,11.0,85,0.00,,,0.00,weatherlink.com 1.10,2013-01-04 04:54:00,
2013-01-03 23:24:00,13.7,10.0,30.22,NW,305,5.0,9.0,84,0.00,,,0.00,weatherlink.com 1.10,2013-01-04 05:24:00,
2013-01-03 23:39:00,13.3,9.0,30.22,West,276,3.0,9.0,84,0.00,,,0.00,weatherlink.com 1.10,2013-01-04 05:39:00,
2013-01-03 23:54:00,12.9,9.0,30.21,South,190,2.0,10.0,84,0.00,,,0.00,weatherlink.com 1.10,2013-01-04 05:54:00,